| time (UTC) | temp F | wind direction | speed MPH | gust MPH | rain 1hr in | rain 24hr in | rain mn in | humidity % | barometer mb |
| 20260503215528 | 58 | 98 | 3.0 | 7.0 | 0.00 | 0.00 | 0.00 | 37 | 1013.8 |
| 20260503214529 | 57 | 77 | 3.0 | 7.0 | 0.00 | 0.00 | 0.00 | 37 | 1013.9 |
| 20260503213531 | 57 | 78 | 4.0 | 7.0 | 0.00 | 0.00 | 0.00 | 37 | 1014.0 |
| 20260503212527 | 57 | 100 | 5.0 | 9.0 | 0.00 | 0.00 | 0.00 | 37 | 1013.9 |
| 20260503211549 | 57 | 123 | 4.0 | 15.0 | 0.00 | 0.00 | 0.00 | 36 | 1014.0 |
| 20260503210529 | 58 | 89 | 3.0 | 5.0 | 0.00 | 0.00 | 0.00 | 36 | 1013.9 |
| 20260503205526 | 58 | 92 | 5.0 | 7.0 | 0.00 | 0.00 | 0.00 | 36 | 1013.9 |
| 20260503204525 | 58 | 95 | 4.0 | 7.0 | 0.00 | 0.00 | 0.00 | 35 | 1014.0 |
| 20260503203521 | 58 | 94 | 3.0 | 5.0 | 0.00 | 0.00 | 0.00 | 35 | 1014.0 |
| 20260503202515 | 59 | 31 | 3.0 | 7.0 | 0.00 | 0.00 | 0.00 | 35 | 1014.2 |
| 20260503201529 | 58 | 160 | 3.0 | 5.0 | 0.00 | 0.00 | 0.00 | 35 | 1014.4 |
| 20260503200525 | 59 | 46 | 4.0 | 7.0 | 0.00 | 0.00 | 0.00 | 36 | 1014.5 |
| 20260503195540 | 59 | 69 | 5.0 | 9.0 | 0.00 | 0.00 | 0.00 | 36 | 1014.5 |
| 20260503194516 | 59 | 95 | 5.0 | 7.0 | 0.00 | 0.00 | 0.00 | 35 | 1014.8 |
| 20260503193530 | 60 | 136 | 3.0 | 9.0 | 0.00 | 0.00 | 0.00 | 35 | 1015.1 |
| 20260503192524 | 60 | 77 | 3.0 | 5.0 | 0.00 | 0.00 | 0.00 | 34 | 1015.1 |
| 20260503191520 | 60 | 106 | 4.0 | 6.0 | 0.00 | 0.00 | 0.00 | 34 | 1015.2 |
| 20260503190532 | 60 | 85 | 5.0 | 10.0 | 0.00 | 0.00 | 0.00 | 34 | 1015.3 |
| 20260503185534 | 60 | 78 | 3.0 | 5.0 | 0.00 | 0.00 | 0.00 | 33 | 1015.3 |
| 20260503184517 | 62 | 87 | 3.0 | 5.0 | 0.00 | 0.00 | 0.00 | 33 | 1015.5 |
| 20260503183523 | 63 | 116 | 4.0 | 8.0 | 0.00 | 0.00 | 0.00 | 32 | 1015.5 |
| 20260503182539 | 63 | 87 | 4.0 | 8.0 | 0.00 | 0.00 | 0.00 | 34 | 1015.8 |
| 20260503181520 | 63 | 90 | 4.0 | 6.0 | 0.00 | 0.00 | 0.00 | 32 | 1015.8 |
| 20260503180533 | 63 | 123 | 3.0 | 5.0 | 0.00 | 0.00 | 0.00 | 33 | 1015.9 |
| 20260503175528 | 63 | 67 | 3.0 | 5.0 | 0.00 | 0.00 | 0.00 | 33 | 1016.0 |
| 20260503174529 | 64 | 119 | 5.0 | 9.0 | 0.00 | 0.00 | 0.00 | 34 | 1016.2 |
| 20260503173530 | 65 | 92 | 4.0 | 6.0 | 0.00 | 0.00 | 0.00 | 33 | 1016.2 |
| 20260503172520 | 65 | 60 | 2.0 | 4.0 | 0.00 | 0.00 | 0.00 | 34 | 1016.4 |
| 20260503171516 | 64 | 51 | 3.0 | 5.0 | 0.00 | 0.00 | 0.00 | 34 | 1016.5 |
| 20260503170517 | 64 | 92 | 3.0 | 6.0 | 0.00 | 0.00 | 0.00 | 33 | 1016.6 |
| 20260503150645 | 57 | 79 | 3.0 | 6.0 | 0.00 | 0.00 | 0.00 | 36 | 1017.3 |
| 20260503130531 | 44 | 101 | 3.0 | 5.0 | 0.00 | 0.00 | 0.00 | 49 | 1018.0 |
| 20260503110519 | 33 | 100 | 2.0 | 3.0 | 0.00 | 0.00 | 0.00 | 73 | 1017.4 |
| 20260503081521 | 33 | 114 | 1.0 | 2.0 | 0.00 | 0.00 | 0.00 | 76 | 1017.3 |
| 20260503080517 | 33 | 107 | 1.0 | 3.0 | 0.00 | 0.00 | 0.00 | 76 | 1017.3 |
| 20260503072522 | 34 | 87 | 1.0 | 3.0 | 0.00 | 0.00 | 0.00 | 76 | 1017.3 |
| 20260503071536 | 34 | 102 | 1.0 | 3.0 | 0.00 | 0.00 | 0.00 | 76 | 1017.3 |
| 20260503070530 | 34 | 114 | 2.0 | 3.0 | 0.00 | 0.00 | 0.00 | 76 | 1017.4 |
| 20260503054518 | 34 | 110 | 1.0 | 3.0 | 0.00 | 0.00 | 0.00 | 75 | 1017.6 |
| 20260503053525 | 34 | 80 | 2.0 | 3.0 | 0.00 | 0.00 | 0.00 | 75 | 1017.7 |
| 20260503052521 | 34 | 88 | 2.0 | 3.0 | 0.00 | 0.00 | 0.00 | 74 | 1017.7 |
| 20260503051603 | 34 | 90 | 2.0 | 2.0 | 0.00 | 0.00 | 0.00 | 74 | 1017.7 |
| 20260503050538 | 35 | 0.0 | 0.0 | 0.00 | 0.00 | 0.00 | 73 | 1017.8 | |
| 20260503045530 | 35 | 87 | 2.0 | 3.0 | 0.00 | 0.00 | 0.00 | 73 | 1017.9 |
| 20260503044524 | 35 | 96 | 1.0 | 2.0 | 0.00 | 0.00 | 0.00 | 72 | 1017.9 |
| 20260503043520 | 36 | 100 | 2.0 | 3.0 | 0.00 | 0.00 | 0.00 | 71 | 1017.9 |
| 20260503042517 | 36 | 93 | 2.0 | 3.0 | 0.00 | 0.00 | 0.00 | 71 | 1017.8 |
| 20260503041530 | 36 | 97 | 2.0 | 3.0 | 0.00 | 0.00 | 0.00 | 70 | 1018.0 |
| 20260503040525 | 37 | 115 | 3.0 | 4.0 | 0.00 | 0.00 | 0.00 | 70 | 1018.0 |
| 20260503035521 | 37 | 100 | 2.0 | 3.0 | 0.00 | 0.00 | 0.00 | 69 | 1018.0 |
| 20260503034516 | 37 | 100 | 2.0 | 3.0 | 0.00 | 0.00 | 0.00 | 68 | 1018.0 |
| 20260503033529 | 37 | 95 | 2.0 | 3.0 | 0.00 | 0.00 | 0.00 | 68 | 1018.1 |
| 20260503032526 | 37 | 113 | 1.0 | 2.0 | 0.00 | 0.00 | 0.00 | 68 | 1018.1 |
| 20260503031540 | 37 | 113 | 1.0 | 2.0 | 0.00 | 0.00 | 0.00 | 68 | 1018.2 |
| 20260503030516 | 37 | 101 | 2.0 | 3.0 | 0.00 | 0.00 | 0.00 | 68 | 1018.2 |
| 20260503025530 | 37 | 105 | 2.0 | 2.0 | 0.00 | 0.00 | 0.00 | 68 | 1018.3 |
| 20260503024525 | 37 | 104 | 0.0 | 2.0 | 0.00 | 0.00 | 0.00 | 68 | 1018.4 |
| 20260503023521 | 37 | 86 | 1.0 | 2.0 | 0.00 | 0.00 | 0.00 | 67 | 1018.4 |
| 20260503022516 | 37 | 104 | 2.0 | 2.0 | 0.00 | 0.00 | 0.00 | 67 | 1018.4 |
| 20260503021531 | 37 | 98 | 2.0 | 2.0 | 0.00 | 0.00 | 0.00 | 66 | 1018.4 |
| 20260503020525 | 37 | 90 | 0.0 | 2.0 | 0.00 | 0.00 | 0.00 | 65 | 1018.4 |
| 20260503015520 | 37 | 0.0 | 0.0 | 0.00 | 0.00 | 0.00 | 64 | 1018.4 | |
| 20260503014515 | 38 | 0.0 | 0.0 | 0.00 | 0.00 | 0.00 | 63 | 1018.4 | |
| 20260503013523 | 38 | 0.0 | 0.0 | 0.00 | 0.00 | 0.00 | 62 | 1018.4 | |
| 20260503012519 | 38 | 0.0 | 0.0 | 0.00 | 0.00 | 0.00 | 61 | 1018.4 | |
| 20260503011527 | 38 | 0.0 | 0.0 | 0.00 | 0.00 | 0.00 | 60 | 1018.4 | |
| 20260503010523 | 39 | 0.0 | 0.0 | 0.00 | 0.00 | 0.00 | 58 | 1018.4 | |
| 20260503005518 | 39 | 0.0 | 0.0 | 0.00 | 0.00 | 0.00 | 58 | 1018.3 | |
| 20260503004518 | 40 | 0.0 | 0.0 | 0.00 | 0.00 | 0.00 | 57 | 1018.2 | |
| 20260503003532 | 40 | 0.0 | 0.0 | 0.00 | 0.00 | 0.00 | 56 | 1018.2 | |
| 20260503002549 | 40 | 0.0 | 0.0 | 0.00 | 0.00 | 0.00 | 55 | 1018.2 | |
| 20260503001523 | 40 | 0.0 | 0.0 | 0.00 | 0.00 | 0.00 | 55 | 1018.2 | |
| 20260503000538 | 41 | 0.0 | 0.0 | 0.00 | 0.00 | 0.00 | 54 | 1018.2 | |
| 20260502235533 | 41 | 352 | 0.0 | 2.0 | 0.00 | 0.00 | 0.00 | 53 | 1018.1 |
| 20260502234527 | 41 | 52 | 1.0 | 3.0 | 0.00 | 0.00 | 0.00 | 53 | 1018.1 |
| 20260502233522 | 41 | 68 | 1.0 | 2.0 | 0.00 | 0.00 | 0.00 | 52 | 1018.1 |
| 20260502232523 | 42 | 78 | 1.0 | 2.0 | 0.00 | 0.00 | 0.00 | 52 | 1018.1 |
| 20260502231519 | 42 | 71 | 2.0 | 3.0 | 0.00 | 0.00 | 0.00 | 52 | 1018.2 |
| 20260502230527 | 42 | 73 | 1.0 | 3.0 | 0.00 | 0.00 | 0.00 | 51 | 1018.2 |
| 20260502225522 | 43 | 82 | 1.0 | 3.0 | 0.00 | 0.00 | 0.00 | 52 | 1018.1 |
| 20260502224518 | 43 | 76 | 2.0 | 3.0 | 0.00 | 0.00 | 0.00 | 52 | 1018.1 |
| 20260502223518 | 43 | 62 | 1.0 | 2.0 | 0.00 | 0.00 | 0.00 | 53 | 1018.2 |
| 20260502222553 | 43 | 77 | 1.0 | 4.0 | 0.00 | 0.00 | 0.00 | 54 | 1018.2 |
| 20260502221529 | 43 | 80 | 1.0 | 3.0 | 0.00 | 0.00 | 0.00 | 54 | 1018.2 |
| 20260502220523 | 43 | 100 | 2.0 | 4.0 | 0.00 | 0.00 | 0.00 | 55 | 1018.2 |